User: anonymous   Login
Location: Caltech
(34.1382°N, 118.1253°W)
Time: 22:40:07
(UTC-08:00)
Language:

Saudisat 1A - Orbit

View from above orbital plane
View from above orbital plane
View from above satellite
View from above satellite

Ground track
Ground track

The orbit data is extracted from the following two-line orbital elements,

1 26546U 00057B   14326.68042633  .00002456  00000-0  27890-3 0  4365
2 26546 064.5578 026.8988 0010313 321.7044 038.3331 14.88577051766983
Epoch (UTC): 22 November 2014 16:19:48
Eccentricity: 0.0010313
inclination: 64.5578°
perigee height: 595 km
apogee height: 609 km
right ascension of ascending node: 26.8988°
argument of perigee: 321.7044°
revolutions per day: 14.88577051
mean anomaly at epoch: 38.3331°
orbit number at epoch: 76698

The dashed part of the orbit path shows where the satellite is in the earth's shadow,  

DLR